Torna al catalogo

ONEWEB-0340

AttivoComunicazioniPO
NORAD 49206·PAYLOAD·🇬🇧 United Kingdom

Lanciato Sep 14, 2021 da Baikonur Cosmodrome

Loading…

Prossimi Passaggi (prossime 24 ore)

TLE

AggiornatoSource: CelesTrak SupGP

Epoca: Sep 14, 2026, 20:14 UTC

1 49206C 21083W   26257.84322176 -.00002848  00000+0 -72332-2 0  2579
2 49206  87.9165 317.6451 0001953 103.5876   8.9247 13.18690461    14

Traccia ONEWEB-0340 in tempo reale con AllMySat

Download on the App Store